Time,TemperatureF,DewpointF,PressureIn,WindDirection,WindDirectionDegrees,WindSpeedMPH,WindSpeedGustMPH,Humidity,HourlyPrecipIn,Conditions,Clouds,dailyrainin,SolarRadiationWatts/m^2,SoftwareType,DateUTC
2013-11-19 00:12:00,21.0,17.0,-100.00,WNW,288,4.0,6.0,85,0.00,,,0.00,0.000000,,2013-11-19 06:12:00,
2013-11-19 00:22:00,21.0,17.0,-100.00,WNW,288,4.0,6.0,85,0.00,,,0.00,0.000000,,2013-11-19 06:22:00,
2013-11-19 00:32:00,21.0,17.0,-100.00,WNW,288,4.0,6.0,85,0.00,,,0.00,0.000000,,2013-11-19 06:32:00,
2013-11-19 00:42:00,21.0,17.0,-100.00,WNW,288,4.0,6.0,85,0.00,,,0.00,0.000000,,2013-11-19 06:42:00,
2013-11-19 01:12:00,21.0,17.0,-100.00,WNW,287,4.0,6.0,84,0.00,,,0.00,0.000000,,2013-11-19 07:12:00,
2013-11-19 01:22:00,21.0,17.0,-100.00,WNW,287,4.0,6.0,84,0.00,,,0.00,0.000000,,2013-11-19 07:22:00,
2013-11-19 01:32:00,21.0,17.0,-100.00,WNW,287,4.0,6.0,84,0.00,,,0.00,0.000000,,2013-11-19 07:32:00,
2013-11-19 01:42:00,21.0,17.0,-100.00,WNW,287,4.0,6.0,84,0.00,,,0.00,0.000000,,2013-11-19 07:42:00,
2013-11-19 02:11:00,18.0,15.0,-100.00,North,5,1.0,6.0,89,0.00,,,0.00,0.000000,,2013-11-19 08:11:00,
2013-11-19 02:22:00,18.0,15.0,-100.00,North,5,1.0,6.0,89,0.00,,,0.00,0.000000,,2013-11-19 08:22:00,
2013-11-19 02:32:00,18.0,15.0,-100.00,North,5,1.0,6.0,89,0.00,,,0.00,0.000000,,2013-11-19 08:32:00,
2013-11-19 02:42:00,18.0,15.0,-100.00,North,5,1.0,6.0,89,0.00,,,0.00,0.000000,,2013-11-19 08:42:00,
2013-11-19 03:11:00,18.0,16.0,-100.00,WSW,240,4.0,6.0,90,0.00,,,0.00,0.000000,,2013-11-19 09:11:00,
2013-11-19 03:21:00,18.0,16.0,-100.00,WSW,240,4.0,6.0,90,0.00,,,0.00,0.000000,,2013-11-19 09:21:00,
2013-11-19 03:33:00,18.0,16.0,-100.00,WSW,240,4.0,6.0,90,0.00,,,0.00,0.000000,,2013-11-19 09:33:00,
2013-11-19 03:43:00,18.0,16.0,-100.00,WSW,240,4.0,6.0,90,0.00,,,0.00,0.000000,,2013-11-19 09:43:00,
2013-11-19 04:12:00,17.0,14.0,-100.00,NW,317,0.0,5.0,89,0.00,,,0.00,0.000000,,2013-11-19 10:12:00,
2013-11-19 04:23:00,17.0,14.0,-100.00,NW,317,0.0,5.0,89,0.00,,,0.00,0.000000,,2013-11-19 10:23:00,
2013-11-19 04:33:00,17.0,14.0,-100.00,NW,317,0.0,5.0,89,0.00,,,0.00,0.000000,,2013-11-19 10:33:00,
2013-11-19 04:43:00,17.0,14.0,-100.00,NW,317,0.0,5.0,89,0.00,,,0.00,0.000000,,2013-11-19 10:43:00,
2013-11-19 05:12:00,16.0,13.0,-100.00,SSW,213,2.0,4.0,89,0.00,,,0.00,0.000000,,2013-11-19 11:12:00,
2013-11-19 05:22:00,16.0,13.0,-100.00,SSW,213,2.0,4.0,89,0.00,,,0.00,0.000000,,2013-11-19 11:22:00,
2013-11-19 05:32:00,16.0,13.0,-100.00,SSW,213,2.0,4.0,89,0.00,,,0.00,0.000000,,2013-11-19 11:32:00,
2013-11-19 05:42:00,16.0,13.0,-100.00,SSW,213,2.0,4.0,89,0.00,,,0.00,0.000000,,2013-11-19 11:42:00,
2013-11-19 06:12:00,16.0,13.0,-100.00,SE,146,1.0,3.0,89,0.00,,,-99.99,0.000000,,2013-11-19 12:12:00,
2013-11-19 06:21:00,16.0,13.0,-100.00,SE,146,1.0,3.0,89,0.00,,,-99.99,0.000000,,2013-11-19 12:21:00,
2013-11-19 06:32:00,16.0,13.0,-100.00,SE,146,1.0,3.0,89,0.00,,,-99.99,0.000000,,2013-11-19 12:32:00,
2013-11-19 06:42:00,16.0,13.0,-100.00,SE,146,1.0,3.0,89,0.00,,,-99.99,0.000000,,2013-11-19 12:42:00,
2013-11-19 07:11:00,15.0,12.0,-100.00,ESE,102,0.0,2.0,86,0.00,,,0.00,0.000000,,2013-11-19 13:11:00,
2013-11-19 07:21:00,15.0,12.0,-100.00,ESE,102,0.0,2.0,86,0.00,,,0.00,0.000000,,2013-11-19 13:21:00,
2013-11-19 07:32:00,15.0,12.0,-100.00,ESE,102,0.0,2.0,86,0.00,,,0.00,0.000000,,2013-11-19 13:32:00,
2013-11-19 07:42:00,15.0,12.0,-100.00,ESE,102,0.0,2.0,86,0.00,,,0.00,0.000000,,2013-11-19 13:42:00,
2013-11-19 08:11:00,15.0,12.0,-100.00,SW,221,2.0,3.0,86,0.00,,,0.00,13.000000,,2013-11-19 14:11:00,
2013-11-19 08:22:00,15.0,12.0,-100.00,SW,221,2.0,3.0,86,0.00,,,0.00,13.000000,,2013-11-19 14:22:00,
2013-11-19 08:32:00,15.0,12.0,-100.00,SW,221,2.0,3.0,86,0.00,,,0.00,13.000000,,2013-11-19 14:32:00,
2013-11-19 08:42:00,15.0,12.0,-100.00,SW,221,2.0,3.0,86,0.00,,,0.00,13.000000,,2013-11-19 14:42:00,
2013-11-19 10:13:00,31.0,21.0,-100.00,SE,133,5.0,10.0,67,-99.99,,,0.00,292.000000,,2013-11-19 16:13:00,
2013-11-19 10:23:00,31.0,21.0,-100.00,SE,133,5.0,10.0,67,-99.99,,,0.00,292.000000,,2013-11-19 16:23:00,
2013-11-19 10:33:00,31.0,21.0,-100.00,SE,133,5.0,10.0,67,-99.99,,,0.00,292.000000,,2013-11-19 16:33:00,
2013-11-19 10:43:00,31.0,21.0,-100.00,SE,133,5.0,10.0,67,-99.99,,,0.00,292.000000,,2013-11-19 16:43:00,
2013-11-19 11:22:00,33.0,20.0,-100.00,South,179,7.0,12.0,59,0.00,,,0.00,391.000000,,2013-11-19 17:22:00,
2013-11-19 11:32:00,33.0,20.0,-100.00,South,179,7.0,12.0,59,0.00,,,0.00,391.000000,,2013-11-19 17:32:00,
2013-11-19 11:43:00,33.0,20.0,-100.00,South,179,7.0,12.0,59,0.00,,,0.00,391.000000,,2013-11-19 17:43:00,
2013-11-19 12:12:00,35.0,20.0,-100.00,SSE,162,6.0,13.0,55,0.00,,,0.00,434.000000,,2013-11-19 18:12:00,
2013-11-19 12:22:00,35.0,20.0,-100.00,SSE,162,6.0,13.0,55,0.00,,,0.00,434.000000,,2013-11-19 18:22:00,
2013-11-19 12:32:00,35.0,20.0,-100.00,SSE,162,6.0,13.0,55,0.00,,,0.00,434.000000,,2013-11-19 18:32:00,
2013-11-19 12:42:00,35.0,20.0,-100.00,SSE,162,6.0,13.0,55,0.00,,,0.00,434.000000,,2013-11-19 18:42:00,
2013-11-19 13:21:00,37.0,20.0,-100.00,ESE,117,8.0,16.0,49,0.00,,,0.00,420.000000,,2013-11-19 19:21:00,
2013-11-19 13:32:00,37.0,20.0,-100.00,ESE,117,8.0,16.0,49,0.00,,,0.00,420.000000,,2013-11-19 19:32:00,
2013-11-19 13:42:00,37.0,20.0,-100.00,ESE,117,8.0,16.0,49,0.00,,,0.00,420.000000,,2013-11-19 19:42:00,
2013-11-19 14:21:00,38.0,21.0,-100.00,SE,135,6.0,14.0,49,0.00,,,0.00,273.000000,,2013-11-19 20:21:00,
2013-11-19 14:32:00,38.0,21.0,-100.00,SE,135,6.0,14.0,49,0.00,,,0.00,273.000000,,2013-11-19 20:32:00,
2013-11-19 14:42:00,38.0,21.0,-100.00,SE,135,6.0,14.0,49,0.00,,,0.00,273.000000,,2013-11-19 20:42:00,
2013-11-19 15:21:00,39.0,20.0,-100.00,SE,134,7.0,14.0,47,0.00,,,0.00,227.000000,,2013-11-19 21:21:00,
2013-11-19 15:33:00,39.0,20.0,-100.00,SE,134,7.0,14.0,47,0.00,,,0.00,227.000000,,2013-11-19 21:33:00,
2013-11-19 15:43:00,39.0,20.0,-100.00,SE,134,7.0,14.0,47,0.00,,,0.00,227.000000,,2013-11-19 21:43:00,
2013-11-19 16:13:00,40.0,21.0,-100.00,SE,141,8.0,17.0,46,0.00,,,0.00,170.000000,,2013-11-19 22:13:00,
2013-11-19 16:23:00,40.0,21.0,-100.00,SE,141,8.0,17.0,46,0.00,,,0.00,170.000000,,2013-11-19 22:23:00,
2013-11-19 16:33:00,40.0,21.0,-100.00,SE,141,8.0,17.0,46,0.00,,,0.00,170.000000,,2013-11-19 22:33:00,
2013-11-19 16:42:00,40.0,21.0,-100.00,SE,141,8.0,17.0,46,0.00,,,0.00,170.000000,,2013-11-19 22:42:00,
2013-11-19 17:22:00,37.0,21.0,-100.00,SE,131,5.0,14.0,53,0.00,,,0.00,31.000000,,2013-11-19 23:22:00,
2013-11-19 17:32:00,37.0,21.0,-100.00,SE,131,5.0,14.0,53,0.00,,,0.00,31.000000,,2013-11-19 23:32:00,
2013-11-19 17:43:00,37.0,21.0,-100.00,SE,131,5.0,14.0,53,0.00,,,0.00,31.000000,,2013-11-19 23:43:00,
2013-11-19 18:11:00,35.0,22.0,-100.00,SE,124,5.0,15.0,58,0.00,,,-99.99,0.000000,,2013-11-20 00:11:00,
2013-11-19 18:21:00,35.0,22.0,-100.00,SE,124,5.0,15.0,58,0.00,,,-99.99,0.000000,,2013-11-20 00:21:00,
2013-11-19 18:32:00,35.0,22.0,-100.00,SE,124,5.0,15.0,58,0.00,,,-99.99,0.000000,,2013-11-20 00:32:00,
2013-11-19 18:42:00,35.0,22.0,-100.00,SE,124,5.0,15.0,58,0.00,,,-99.99,0.000000,,2013-11-20 00:42:00,
2013-11-19 19:11:00,34.0,23.0,-100.00,SE,133,7.0,17.0,64,0.00,,,0.00,0.000000,,2013-11-20 01:11:00,
2013-11-19 19:22:00,34.0,23.0,-100.00,SE,133,7.0,17.0,64,0.00,,,0.00,0.000000,,2013-11-20 01:22:00,
2013-11-19 19:32:00,34.0,23.0,-100.00,SE,133,7.0,17.0,64,0.00,,,0.00,0.000000,,2013-11-20 01:32:00,
2013-11-19 19:42:00,34.0,23.0,-100.00,SE,133,7.0,17.0,64,0.00,,,0.00,0.000000,,2013-11-20 01:42:00,
2013-11-19 20:11:00,33.0,24.0,-100.00,SSE,148,6.0,14.0,68,0.00,,,0.00,0.000000,,2013-11-20 02:11:00,
2013-11-19 20:22:00,33.0,24.0,-100.00,SSE,148,6.0,14.0,68,0.00,,,0.00,0.000000,,2013-11-20 02:22:00,
2013-11-19 20:32:00,33.0,24.0,-100.00,SSE,148,6.0,14.0,68,0.00,,,0.00,0.000000,,2013-11-20 02:32:00,
2013-11-19 20:42:00,33.0,24.0,-100.00,SSE,148,6.0,14.0,68,0.00,,,0.00,0.000000,,2013-11-20 02:42:00,
2013-11-19 21:11:00,34.0,24.0,-100.00,SE,146,7.0,15.0,67,0.00,,,0.00,0.000000,,2013-11-20 03:11:00,
2013-11-19 21:21:00,34.0,24.0,-100.00,SE,146,7.0,15.0,67,0.00,,,0.00,0.000000,,2013-11-20 03:21:00,
2013-11-19 21:34:00,34.0,24.0,-100.00,SE,146,7.0,15.0,67,0.00,,,0.00,0.000000,,2013-11-20 03:34:00,
2013-11-19 21:44:00,34.0,24.0,-100.00,SE,146,7.0,15.0,67,0.00,,,0.00,0.000000,,2013-11-20 03:44:00,
2013-11-19 22:13:00,34.0,24.0,-100.00,SSE,162,7.0,12.0,67,0.00,,,0.00,0.000000,,2013-11-20 04:13:00,
2013-11-19 22:23:00,34.0,24.0,-100.00,SSE,162,7.0,12.0,67,0.00,,,0.00,0.000000,,2013-11-20 04:23:00,
2013-11-19 22:33:00,34.0,24.0,-100.00,SSE,162,7.0,12.0,67,0.00,,,0.00,0.000000,,2013-11-20 04:33:00,
2013-11-19 22:43:00,34.0,24.0,-100.00,SSE,162,7.0,12.0,67,0.00,,,0.00,0.000000,,2013-11-20 04:43:00,
2013-11-19 23:12:00,34.0,25.0,-100.00,SSE,159,7.0,14.0,69,0.00,,,0.00,0.000000,,2013-11-20 05:12:00,
2013-11-19 23:22:00,34.0,25.0,-100.00,SSE,159,7.0,14.0,69,0.00,,,0.00,0.000000,,2013-11-20 05:22:00,
2013-11-19 23:33:00,34.0,25.0,-100.00,SSE,159,7.0,14.0,69,0.00,,,0.00,0.000000,,2013-11-20 05:33:00,
2013-11-19 23:43:00,34.0,25.0,-100.00,SSE,159,7.0,14.0,69,0.00,,,0.00,0.000000,,2013-11-20 05:43:00,